Weather History for Savanna, IL

Change the Weather History Date:

Saturday, May 25, 2013

  Actual Average (KCWI) Record (KCWI)
Temperature  
Mean Temperature 53 °F -  
Max Temperature 56 °F 74 °F 91 °F (1967)
Min Temperature 48 °F 52 °F 39 °F (1988)
Degree Days  
Heating Degree Days 12    
Growing Degree Days 3 (Base 50)    
Moisture  
Dew Point 43 °F    
Average Humidity 72    
Maximum Humidity 86    
Minimum Humidity 52    
Precipitation  
Precipitation 0.21 in - - ()
Sea Level Pressure  
Sea Level Pressure 30.32 in    
Wind  
Wind Speed 6 mph (ESE)    
Max Wind Speed 13 mph    
Max Gust Speed -    
Visibility 10 miles    
Events Rain , Thunderstorm    
Averages and records for this station are not official NWS values.
T = Trace of Precipitation, MM = Missing Value Source: NWS Daily Summary

Daily Weather History Graph

Daily Weather History Graph

Search for Another Location

Airport:

Trip Planner

Search our weather history database for the weather conditions in past years. The results will help you decide how hot, cold, wet, or windy it might be!

Date:

Astronomy

May. 25, 2013 Rise Set
Actual Time 5:31 AM CDT 8:24 PM CDT
Civil Twilight 4:58 AM CDT 8:57 PM CDT
Nautical Twilight 4:16 AM CDT 9:39 PM CDT
Astronomical Twilight 3:27 AM CDT 10:28 PM CDT
Moon 9:12 PM CDT (5/25) 5:58 AM CDT (5/25)
Length of Visible Light 15h 59m
Length of Day
14h 53m
Full, 100% of the Moon is Illuminated
May 25
Full
May 31
Last Quarter
Jun 8
New
Jun 16
First Quarter
Jun 23
Full

Hourly Weather History & Observations

Time (CDT) Temp. Dew Point Humidity Pressure Visibility Wind Dir Wind Speed Gust Speed Precip Events Conditions
12:15 AM 58.1 °F 40.5 °F 52% 30.31 in 10.0 mi SE 8.1 mph - N/A   Clear
12:35 AM 57.0 °F 40.3 °F 54% 30.30 in 10.0 mi ESE 9.2 mph - N/A   Clear
12:55 AM 56.3 °F 40.3 °F 55% 30.30 in 10.0 mi SE 10.4 mph - N/A   Scattered Clouds
1:15 AM 55.8 °F 39.4 °F 54% 30.29 in 10.0 mi SE 9.2 mph - N/A   Overcast
1:35 AM 55.4 °F 38.5 °F 53% 30.29 in 10.0 mi SE 8.1 mph - N/A   Light Drizzle
1:55 AM 52.3 °F 41.5 °F 67% 30.28 in 10.0 mi SSE 10.4 mph - N/A Rain Light Rain
2:15 AM 52.0 °F 44.1 °F 74% 30.33 in 7.0 mi West 3.5 mph - 0.02 in Rain Light Rain
2:35 AM 51.6 °F 42.4 °F 71% 30.32 in 10.0 mi Calm Calm - 0.04 in Rain Light Rain
2:55 AM 50.5 °F 46.4 °F 86% 30.31 in 7.0 mi East 4.6 mph - 0.07 in Rain Light Rain
3:15 AM 50.0 °F 45.7 °F 85% 30.30 in 10.0 mi East 5.8 mph - 0.01 in Rain Light Rain
3:35 AM 49.5 °F 45.1 °F 85% 30.29 in 10.0 mi East 9.2 mph - 0.03 in Rain Light Rain
3:55 AM 49.3 °F 44.6 °F 84% 30.31 in 10.0 mi East 4.6 mph - 0.03 in   Drizzle
4:15 AM 49.3 °F 44.2 °F 83% 30.32 in 10.0 mi East 4.6 mph - 0.01 in Rain Light Rain
4:35 AM 49.1 °F 44.6 °F 84% 30.32 in 10.0 mi Calm Calm - 0.01 in Rain Light Rain
4:55 AM 49.3 °F 43.3 °F 80% 30.33 in 10.0 mi South 3.5 mph - 0.02 in   Light Drizzle
5:15 AM 48.9 °F 43.0 °F 80% 30.32 in 10.0 mi SE 8.1 mph - N/A   Overcast
5:35 AM 48.4 °F 43.5 °F 83% 30.34 in 10.0 mi ENE 3.5 mph - N/A   Overcast
5:55 AM 48.4 °F 43.5 °F 83% 30.36 in 10.0 mi NNE 6.9 mph - N/A   Overcast
6:15 AM 48.7 °F 43.3 °F 82% 30.36 in 10.0 mi ENE 3.5 mph - N/A Rain Light Rain
6:35 AM 48.9 °F 42.8 °F 79% 30.37 in 10.0 mi East 3.5 mph - N/A   Overcast
6:55 AM 48.6 °F 42.6 °F 80% 30.37 in 10.0 mi East 5.8 mph - N/A   Overcast
7:15 AM 48.7 °F 42.6 °F 79% 30.36 in 10.0 mi ENE 4.6 mph - N/A   Overcast
7:35 AM 49.1 °F 42.8 °F 79% 30.38 in 10.0 mi ENE 5.8 mph - N/A   Overcast
7:55 AM 49.6 °F 41.4 °F 73% 30.37 in 10.0 mi East 3.5 mph - N/A   Overcast
8:15 AM 50.2 °F 41.5 °F 72% 30.36 in 10.0 mi ENE 5.8 mph - N/A   Overcast
8:35 AM 50.2 °F 41.4 °F 72% 30.35 in 10.0 mi East 5.8 mph - N/A   Overcast
8:55 AM 50.4 °F 41.9 °F 73% 30.36 in 10.0 mi Calm Calm - N/A   Overcast
9:15 AM 50.9 °F 38.5 °F 62% 30.36 in 10.0 mi ESE 5.8 mph - N/A   Overcast
9:35 AM 51.3 °F 38.8 °F 63% 30.36 in 10.0 mi ENE 3.5 mph - N/A   Overcast
9:55 AM 51.1 °F 39.9 °F 66% 30.37 in 10.0 mi ESE 4.6 mph - N/A   Overcast
10:15 AM 51.4 °F 40.1 °F 65% 30.37 in 10.0 mi SE 3.5 mph - N/A   Overcast
10:35 AM 51.8 °F 40.8 °F 66% 30.39 in 10.0 mi South 3.5 mph - N/A Rain Light Rain
10:55 AM 52.0 °F 41.7 °F 68% 30.40 in 10.0 mi South 4.6 mph - N/A   Light Drizzle
11:15 AM 52.2 °F 43.2 °F 71% 30.38 in 10.0 mi South 6.9 mph - N/A Rain Light Rain
11:35 AM 52.2 °F 42.4 °F 69% 30.35 in 10.0 mi SE 5.8 mph - N/A Rain , Thunderstorm Light Thunderstorms and Rain
11:55 AM 53.1 °F 42.8 °F 68% 30.34 in 10.0 mi ESE 4.6 mph - N/A   Overcast
12:15 PM 54.5 °F 43.3 °F 66% 30.30 in 10.0 mi ESE 9.2 mph - N/A   Mostly Cloudy
12:35 PM 54.3 °F 42.6 °F 65% 30.26 in 10.0 mi ESE 12.7 mph - N/A   Scattered Clouds
12:55 PM 54.7 °F 41.2 °F 60% 30.30 in 10.0 mi SE 5.8 mph - N/A   Mostly Cloudy
1:15 PM 54.7 °F 42.3 °F 63% 30.33 in 10.0 mi SSW 6.9 mph - N/A Rain Light Rain
1:35 PM 52.9 °F 41.5 °F 65% 30.32 in 10.0 mi South 9.2 mph - N/A Rain Light Rain
1:55 PM 52.0 °F 44.1 °F 74% 30.29 in 10.0 mi ESE 10.4 mph - N/A Rain Light Rain
2:15 PM 51.8 °F 43.9 °F 74% 30.31 in 10.0 mi SE 4.6 mph - 0.01 in Rain Light Rain
2:35 PM 52.3 °F 44.8 °F 75% 30.32 in 10.0 mi ESE 3.5 mph - 0.03 in Rain Light Rain
2:55 PM 52.2 °F 44.4 °F 75% 30.33 in 5.0 mi NE 3.5 mph - 0.05 in Rain Light Rain
3:15 PM 51.6 °F 45.7 °F 80% 30.32 in 10.0 mi East 4.6 mph - 0.01 in Rain Light Rain
3:35 PM 52.0 °F 45.9 °F 80% 30.32 in 7.0 mi East 3.5 mph - 0.03 in Rain Light Rain
3:55 PM 52.2 °F 46.6 °F 81% 30.32 in 10.0 mi NE 3.5 mph - 0.04 in Rain Light Rain
4:15 PM 52.7 °F 46.9 °F 81% 30.31 in 10.0 mi ENE 8.1 mph - N/A Rain Light Rain
4:35 PM 52.7 °F 46.0 °F 78% 30.32 in 10.0 mi ENE 8.1 mph - N/A Rain Light Rain
4:55 PM 53.1 °F 45.7 °F 76% 30.31 in 10.0 mi ENE 8.1 mph - N/A   Overcast
5:15 PM 54.1 °F 44.2 °F 69% 30.31 in 10.0 mi East 6.9 mph - N/A   Overcast
5:35 PM 53.8 °F 43.7 °F 69% 30.31 in 10.0 mi SE 6.9 mph - N/A   Overcast
5:55 PM 54.5 °F 44.4 °F 69% 30.31 in 10.0 mi East 6.9 mph - N/A   Overcast
6:15 PM 54.7 °F 44.2 °F 68% 30.30 in 10.0 mi East 5.8 mph - N/A   Overcast
6:35 PM 54.7 °F 44.2 °F 68% 30.29 in 10.0 mi ESE 8.1 mph - N/A   Overcast
6:55 PM 55.4 °F 45.3 °F 69% 30.29 in 10.0 mi East 6.9 mph - N/A   Overcast
7:15 PM 54.7 °F 44.4 °F 68% 30.29 in 10.0 mi ESE 6.9 mph - N/A   Overcast
7:35 PM 54.7 °F 45.1 °F 70% 30.28 in 10.0 mi East 8.1 mph - N/A   Overcast
7:55 PM 54.5 °F 45.9 °F 73% 30.28 in 10.0 mi East 6.9 mph - N/A   Overcast
8:15 PM 53.8 °F 45.3 °F 73% 30.28 in 10.0 mi ESE 6.9 mph - N/A   Overcast
8:35 PM 53.6 °F 44.6 °F 72% 30.28 in 10.0 mi East 5.8 mph - N/A   Overcast
8:55 PM 53.2 °F 44.6 °F 72% 30.28 in 10.0 mi East 5.8 mph - N/A   Overcast
9:15 PM 53.1 °F 45.0 °F 74% 30.28 in 10.0 mi East 6.9 mph - N/A   Overcast
9:35 PM 52.9 °F 43.3 °F 70% 30.28 in 10.0 mi East 6.9 mph - N/A   Overcast
9:55 PM 52.2 °F 43.3 °F 72% 30.29 in 10.0 mi East 5.8 mph - N/A   Mostly Cloudy
10:15 PM 51.8 °F 43.2 °F 72% 30.28 in 10.0 mi East 6.9 mph - N/A   Mostly Cloudy
10:35 PM 50.9 °F 43.0 °F 74% 30.28 in 10.0 mi East 6.9 mph - N/A   Scattered Clouds
10:55 PM 49.3 °F 42.8 °F 78% 30.27 in 10.0 mi East 5.8 mph - N/A   Clear
11:15 PM 48.7 °F 42.6 °F 79% 30.27 in 10.0 mi East 4.6 mph - N/A   Clear
11:35 PM 49.1 °F 42.3 °F 77% 30.27 in 10.0 mi East 5.8 mph - N/A   Clear
11:55 PM 48.7 °F 42.4 °F 79% 30.28 in 10.0 mi East 3.5 mph - N/A   Clear